TimeEST,TemperatureF,Dew PointF,Humidity,Sea Level PressureIn,VisibilityMPH,Wind Direction,Wind SpeedMPH,Gust SpeedMPH,PrecipitationIn,Events,Conditions,WindDirDegrees,DateUTC
12:02 AM,24.8,21.2,86,30.37,3.0,Calm,Calm,-,N/A,,Clear,0,2013-01-09 05:02:00
12:41 AM,24.8,21.2,86,30.36,2.5,Calm,Calm,-,N/A,,Clear,0,2013-01-09 05:41:00
12:54 AM,23.0,19.9,88,30.38,1.8,Calm,Calm,-,N/A,,Clear,0,2013-01-09 05:54:00
1:08 AM,23.0,21.2,93,30.36,3.0,Calm,Calm,-,N/A,,Clear,0,2013-01-09 06:08:00
1:54 AM,21.0,19.0,92,30.38,2.5,Calm,Calm,-,N/A,,Clear,0,2013-01-09 06:54:00
2:16 AM,21.2,19.4,93,30.36,3.0,Calm,Calm,-,N/A,,Clear,0,2013-01-09 07:16:00
2:41 AM,21.2,17.6,86,30.36,2.5,Calm,Calm,-,N/A,,Clear,0,2013-01-09 07:41:00
2:54 AM,21.0,19.0,92,30.38,2.5,Calm,Calm,-,N/A,,Clear,0,2013-01-09 07:54:00
3:03 AM,21.2,19.4,93,30.36,3.0,Calm,Calm,-,N/A,,Clear,0,2013-01-09 08:03:00
3:45 AM,19.4,17.6,93,30.34,2.5,Calm,Calm,-,N/A,,Clear,0,2013-01-09 08:45:00
3:54 AM,19.9,18.0,92,30.36,3.0,Calm,Calm,-,N/A,,Clear,0,2013-01-09 08:54:00
4:10 AM,19.4,17.6,93,30.34,2.5,Calm,Calm,-,N/A,,Clear,0,2013-01-09 09:10:00
4:35 AM,19.4,17.6,93,30.34,3.0,Calm,Calm,-,N/A,,Clear,0,2013-01-09 09:35:00
4:49 AM,19.4,17.6,93,30.34,2.5,Calm,Calm,-,N/A,,Clear,0,2013-01-09 09:49:00
4:54 AM,19.9,16.0,85,30.37,2.5,Calm,Calm,-,N/A,,Clear,0,2013-01-09 09:54:00
5:05 AM,19.4,17.6,93,30.34,3.0,Calm,Calm,-,N/A,,Clear,0,2013-01-09 10:05:00
5:54 AM,19.9,17.1,89,30.35,3.0,Calm,Calm,-,N/A,,Clear,0,2013-01-09 10:54:00
6:54 AM,19.9,18.0,92,30.37,4.0,Calm,Calm,-,N/A,,Clear,0,2013-01-09 11:54:00
7:51 AM,19.4,17.6,93,30.33,2.5,Calm,Calm,-,N/A,,Clear,0,2013-01-09 12:51:00
7:54 AM,19.9,17.1,89,30.35,2.5,Calm,Calm,-,N/A,,Clear,0,2013-01-09 12:54:00
8:54 AM,21.9,21.0,96,30.34,2.5,Calm,Calm,-,N/A,,Clear,0,2013-01-09 13:54:00
9:54 AM,24.1,21.0,88,30.35,2.5,West,3.5,-,N/A,,Clear,260,2013-01-09 14:54:00
10:37 AM,24.8,23.0,93,30.29,3.0,Calm,Calm,-,N/A,,Overcast,0,2013-01-09 15:37:00
10:54 AM,24.8,23.0,93,30.29,3.0,Calm,Calm,-,N/A,,Overcast,0,2013-01-09 15:54:00
11:01 AM,24.8,23.0,93,30.30,2.5,Calm,Calm,-,N/A,,Overcast,0,2013-01-09 16:01:00
11:18 AM,26.6,23.0,86,30.32,3.0,West,8.1,-,N/A,,Overcast,260,2013-01-09 16:18:00
11:54 AM,26.1,23.0,88,30.28,3.0,Calm,Calm,-,N/A,,Overcast,0,2013-01-09 16:54:00
12:54 PM,28.0,25.0,88,30.19,3.0,Calm,Calm,-,N/A,,Overcast,0,2013-01-09 17:54:00
1:01 PM,28.4,24.8,86,30.18,2.5,WNW,3.5,-,N/A,,Overcast,300,2013-01-09 18:01:00
1:27 PM,28.4,24.8,86,30.17,3.0,WSW,5.8,-,N/A,,Overcast,250,2013-01-09 18:27:00
1:54 PM,28.9,25.0,85,30.19,3.0,WSW,6.9,-,N/A,,Overcast,250,2013-01-09 18:54:00
2:54 PM,30.9,25.0,79,30.19,3.0,Calm,Calm,-,N/A,,Haze,0,2013-01-09 19:54:00
3:54 PM,33.1,25.0,72,30.17,4.0,Calm,Calm,-,N/A,,Haze,0,2013-01-09 20:54:00
4:54 PM,30.9,25.0,79,30.19,3.0,Calm,Calm,-,N/A,,Haze,0,2013-01-09 21:54:00
5:54 PM,27.0,24.1,89,30.22,4.0,Calm,Calm,-,N/A,,Clear,0,2013-01-09 22:54:00
6:54 PM,25.0,23.0,92,30.25,3.0,Calm,Calm,-,N/A,,Clear,0,2013-01-09 23:54:00
7:54 PM,25.0,23.0,92,30.25,3.0,Calm,Calm,-,N/A,,Clear,0,2013-01-10 00:54:00
8:37 PM,26.6,24.8,93,30.23,2.5,Calm,Calm,-,N/A,,Clear,0,2013-01-10 01:37:00
8:54 PM,24.1,23.0,96,30.27,2.5,WNW,4.6,-,N/A,,Clear,300,2013-01-10 01:54:00
9:54 PM,24.1,21.0,88,30.28,3.0,Calm,Calm,-,N/A,,Clear,0,2013-01-10 02:54:00
10:03 PM,23.0,21.2,93,30.25,2.5,Calm,Calm,-,N/A,,Clear,0,2013-01-10 03:03:00
10:54 PM,24.1,23.0,96,30.30,2.5,Calm,Calm,-,N/A,,Clear,0,2013-01-10 03:54:00
11:02 PM,23.0,21.2,93,30.28,3.0,Calm,Calm,-,N/A,,Clear,0,2013-01-10 04:02:00
11:10 PM,23.0,21.2,93,30.28,2.5,Calm,Calm,-,N/A,,Clear,0,2013-01-10 04:10:00
11:28 PM,26.6,21.2,80,30.29,4.0,West,5.8,-,N/A,,Clear,280,2013-01-10 04:28:00
11:54 PM,36.0,23.0,59,30.32,10.0,WNW,8.1,-,N/A,,Clear,300,2013-01-10 04:54:00